STARLINK-32653, 62199

Orbit data source: Space-Track

STARLINK-32653, 62199 is a payload satellite owned by SpaceX/Seattle (US) in LEO that was launched on Wed, 04 Dec 2024 UTC via an FALCON 9 launch vehicle from the Air Force Eastern Test Range (AFETR). Payload-class satellites include a variety of spacecraft equipped with specific instruments for various scientific and technological missions. These include communications satellites like Starlink; space stations such as the ISS; scientific satellites like the Hubble; Earth observation satellites from companies like Planet Labs, Umbra, and HawkEye 360; GPS; miniature CubeSats for education and research; and military/defense satellites.

Loading next visibility...
Identifier
62199, 2024-229H
Orbit
LEO
Country
Flag of USUS
Related business
Manufacturer
SpaceX/Seattle
Mission
Operational Commercial Communications
Bus & Motor
STARLINK V2M, Unknown motor
Mass
730 kg wet, ~700 kg dry
Launch date (UTC)
2024-12-04 (2 years ago)
Launch vehicle
FALCON 9
Launch site
Air Force Eastern Test Range (AFETR)
Object type
Payload
Rocket body
Debris
Shape & HBR
Box + 2 Pan, 17.7 m
Radar Cross Section
33.884 m², Large (>1 m²)

Expand to show TLE details & history
Last TLE update: 15 hours ago

TLE from 15 hours ago
0 STARLINK-32653
1 62199U 24229H   26171.36815223  .00009073  00000-0  33875-3 0  9991
2 62199  43.0040  43.9659 0001462 263.3142  96.7543 15.27586470 86340
Epoch: 2026-06-20T08:50Z
TLE epoch observation values (Epoch: 2026-06-20T08:50:08.352Z)
Latitude
-0.00005°
Longitude
2.84727°
Altitude
482.924 km
Speed
7.626 km/s
True Right ascension
02h 55m 51s
True Declination
0° 00' 00"
Sunlit
Object was in daylight at epoch
Visualization orbit readout
Latitude
Unknown
Longitude
Unknown
Altitude
Unknown
Speed
Unknown
Apparent Right ascension
Unknown
Apparent Declination
Unknown
Sunlit
N/A
Visualization observer readout
Local Sidereal Time
10:19:35
Azimuth
Unknown
Elevation
Unknown
Doppler factor
Unknown
Orbital elements
Apogee altitude
485.978 km
Perigee altitude
483.971 km
Semi-major axis
6,863.111 km
Eccentricity
0.00015
Inclination
43.004°
RAAN
43.9659°
Arg. of periapsis
263.3142°
True anomaly
96.77094°
Mean anomaly
96.7543°
Eccentric anomaly
96.76262°
Mean motion
3.81735 °/min
Orbital period
94.31 mins
BSTAR
0.00033875
Loading maneuver chart data...
Computing Atmospheric mass density...
Loading historical data...
Loading historical data...
Loading historical data...
Loading historical data...
Loading historical data...
Loading historical data...
Loading historical data...

Documentation

Showing up to 5 results
|